sat.trackr.live / text

‹ back to catalog

SZ-22 MODULE

NORAD 69328 · 2025-272C

PAYLOAD ACTIVE UNKNOWN

§ Identity

Operator
Country
PRC
Launch date
2025-11-25
Launch site
JSC
Launch vehicle
Mass (kg)
RCS (m²)

External: N2YO · Heavens-Above · Gunter

§ Orbital elements

Epoch: 2026-09-19T20:51:25.736832Z

Period
92.09 min
Inclination
41.4791°
Eccentricity
0.0005051
Mean motion
15.63734864 rev/d
Perigee alt
373.5 km
Apogee alt
380.3 km
Semi-major
6,755.0 km
B*
1.8894e-4
RAAN
105.0011°
Arg perigee
19.6937°
Mean anomaly
340.4097°
Rev number
1,813

§ Raw data

SZ-22 MODULE1 69328U 25272C   26262.86904788  .00017867  00000+0  18894-3 0  99952 69328  41.4791 105.0011 0005051  19.6937 340.4097 15.63734864 18137

JSON: /api/v1/satellites/69328 · /tle

For live sub-satellite position, see the globe view (requires WebGL).

§ Visibility from observer

Set your observer location to see the next 7 days of passes ≥ 10°. The values pass through the URL so the page stays shareable.

No JS? Fill the form by hand. The geolocation button needs JavaScript.